This is the latest recevied weather packets stored in our database for station/object WP4PW. If no packets are shown the sender has not sent any weather packets the latest 10 day(s).
| Time | Temp. | Humidity | Pressure | Rain* | Wind** | Luminosity | Snow |
|---|---|---|---|---|---|---|---|
| 1777637579 | 27.78° C | 85% | 1018.5 hPa | 0 mm | - | 300 W/m² | - |
| 1777637276 | 27.22° C | 86% | 1018.7 hPa | 0 mm | - | 348 W/m² | - |
| 1777636973 | 27.22° C | 86% | 1018.5 hPa | 0 mm | - | 191 W/m² | - |
| 1777636669 | 27.22° C | 86% | 1018.4 hPa | 0 mm | - | 184 W/m² | - |
| 1777636365 | 27.22° C | 86% | 1018.4 hPa | 0 mm | - | 270 W/m² | - |
| 1777636065 | 27.22° C | 86% | 1018.5 hPa | 0 mm | - | 184 W/m² | - |
| 1777635761 | 27.78° C | 85% | 1018.4 hPa | 0 mm | - | 141 W/m² | - |
| 1777635458 | 27.78° C | 85% | 1018.3 hPa | 0 mm | - | 151 W/m² | - |
| 1777635155 | 26.67° C | 87% | 1018.2 hPa | 0 mm | - | 159 W/m² | - |
| 1777634851 | 26.67° C | 88% | 1018.1 hPa | 0 mm | - | 123 W/m² | - |
| 1777634549 | 26.11° C | 89% | 1017.8 hPa | 0 mm | - | 159 W/m² | - |
| 1777634245 | 25.56° C | 91% | 1017.7 hPa | 0 mm | - | 137 W/m² | - |
| 1777633942 | 25.56° C | 92% | 1017.7 hPa | 0 mm | - | 105 W/m² | - |
| 1777633639 | 25.56° C | 92% | 1017.6 hPa | 0 mm | - | 90 W/m² | - |
| 1777633337 | 25° C | 93% | 1017.6 hPa | 0 mm | - | 70 W/m² | - |
| 1777633035 | 25° C | 93% | 1017.6 hPa | 0 mm | - | 56 W/m² | - |
| 1777632731 | 25° C | 93% | 1017.7 hPa | 0 mm | - | 54 W/m² | - |
| 1777632427 | 25° C | 94% | 1017.6 hPa | 0 mm | - | 49 W/m² | - |
| 1777632124 | 25° C | 94% | 1017.6 hPa | 0 mm | - | 42 W/m² | - |
| 1777631822 | 25° C | 94% | 1017.5 hPa | 0 mm | - | 36 W/m² | - |
| 1777631520 | 25° C | 94% | 1017.5 hPa | 0 mm | - | 28 W/m² | - |
| 1777631216 | 24.44° C | 94% | 1017.5 hPa | 0 mm | - | 25 W/m² | - |
| 1777630914 | 24.44° C | 94% | 1017.3 hPa | 0 mm | - | 19 W/m² | - |
| 1777630614 | 24.44° C | 94% | 1017.1 hPa | 0 mm | - | 13 W/m² | - |
| 1777630311 | 24.44° C | 94% | 1017.2 hPa | 0 mm | - | 9 W/m² | - |
* Rain latest hour (hover to see other rain measurements)
** Current wind speed in m/s (hover to see current wind gust speed)